Starlink 31565

operational
NORAD ID: 59323 Int'l Des: 2024-057 Owner: SPXS Country: US Constellation: starlink
LEOCIRCULAR

关于 Starlink 31565

正在加载描述...

实时位置

正在加载3D地球...

即将过境

高度历史

Altitude vs Time

uPlot chart will show altitude changes over time

两行轨道根数

1 59323U 24057D 25259.25876980 -.00000068 00000-0 70573-5 0 9990
2 59323 43.0032 99.8185 0000899 284.4428 75.6324 15.27573744 83074
Epoch: Sep 16, 2025 • Age: 14 hours

当前状态

高度 482.1 km
速度 7.63 km/s
星下点 13.89°N, 169.38°E
发射日期 Mar 25, 2024
运行时间 1.4 years
类型 internet

技术详情

分类 Payload
质量 730.00 kg
干质量 700.00 kg
总质量 730.00 kg
长度 0.30 m
直径 4.10 m
跨度 29.00 m
形状 Box + pan
制造商 SPXS
平台类型 Starlink V2M
阶段状态 In Orbit
所有者/国家 SPXS/US

大型星座

Loading constellations...